Ketchikan, AK

10:38 AM AKDT on October 19, 2018 (GMT -0800)
Ketchikan International

Weather History for PAKT - April, 2018

Change the Weather History Date:

Friday, April 13, 2018

  Actual Average Record
Temperature  
Mean Temperature 40 °F -  
Max Temperature 44 °F 48 °F 61 °F (2017)
Min Temperature 37 °F 34 °F 22 °F (1966)
Degree Days  
Heating Degree Days 24    
Moisture  
Dew Point 38 °F    
Average Humidity 88    
Maximum Humidity 97    
Minimum Humidity 80    
Precipitation  
Precipitation 0.20 in - - ()
Sea Level Pressure  
Sea Level Pressure 29.57 in    
Wind  
Wind Speed 11 mph (South)    
Max Wind Speed 30 mph    
Max Gust Speed 36 mph    
Visibility 8 miles    
Events Rain    
Averages and records for this station are not official NWS values.
T = Trace of Precipitation, MM = Missing Value Source: NWS Daily Summary

Daily Weather History Graph

Daily Weather History Graph

Search for Another Location

Airport or City:

Astronomy

Apr. 13, 2018 Rise Set
Actual Time 5:47 AM AKDT 7:48 PM AKDT
Civil Twilight 5:08 AM AKDT 8:27 PM AKDT
Nautical Twilight 4:18 AM AKDT 9:17 PM AKDT
Astronomical Twilight 3:21 AM AKDT 10:16 PM AKDT
Moon 5:33 AM AKDT (4/13) 4:56 PM AKDT (4/13)
Length of Visible Light 15h 19m
Length of Day
14h 01m
Waning Crescent, 6% of the Moon is Illuminated
Apr 13
Waning Crescent
Apr 15
New
Apr 22
First Quarter
Apr 29
Full
May 7
Last Quarter

Hourly Weather History & Observations

Time (AKDT) Temp. Windchill Dew Point Humidity Pressure Visibility Wind Dir Wind Speed Gust Speed Precip Events Conditions
12:53 AM 42.1 °F 38.4 °F 37.0 °F 82% 29.61 in 10.0 mi South 5.8 mph - 0.01 in Rain Light Rain
1:53 AM 42.1 °F 37.1 °F 37.9 °F 85% 29.58 in 10.0 mi South 8.1 mph - 0.01 in   Overcast
2:53 AM 42.1 °F 36.1 °F 37.0 °F 82% 29.57 in 10.0 mi SSE 10.4 mph - 0.01 in Rain Light Rain
3:09 AM 42.1 °F 34.5 °F 37.0 °F 82% 29.56 in 8.0 mi SE 15.0 mph 20.7 mph 0.01 in Rain Light Rain
3:53 AM 42.1 °F 32.3 °F 37.9 °F 85% 29.57 in 7.0 mi SE 24.2 mph 32.2 mph 0.04 in Rain Light Rain
4:53 AM 43.0 °F 34.8 °F 37.9 °F 82% 29.56 in 9.0 mi SE 18.4 mph 28.8 mph 0.02 in Rain Light Rain
5:40 AM 42.1 °F 34.2 °F 37.9 °F 85% 29.55 in 10.0 mi SE 16.1 mph 28.8 mph 0.01 in Rain Light Rain
5:53 AM 43.0 °F 35.4 °F 37.0 °F 80% 29.55 in 10.0 mi SE 16.1 mph 23.0 mph 0.01 in Rain Light Rain
6:16 AM 42.8 °F 35.8 °F 37.4 °F 81% 29.53 in 10.0 mi SE 13.8 mph - N/A   Overcast
6:53 AM 41.0 °F 31.6 °F 37.4 °F 87% 29.53 in 4.0 mi SE 20.7 mph 29.9 mph N/A Rain Light Rain
7:53 AM 39.2 °F 29.8 °F 35.6 °F 87% 29.54 in 6.0 mi SE 18.4 mph 24.2 mph N/A Rain Light Rain
8:53 AM 39.2 °F 28.5 °F 37.4 °F 93% 29.53 in 4.0 mi SE 24.2 mph 32.2 mph N/A Rain Light Rain
9:53 AM 39.2 °F 27.4 °F 37.4 °F 93% 29.56 in 4.0 mi SE 29.9 mph 35.7 mph N/A Rain Rain
10:53 AM 41.0 °F 35.2 °F 37.4 °F 87% 29.57 in 4.0 mi SSE 9.2 mph - N/A Rain Light Rain
11:53 AM 42.8 °F 35.8 °F 39.2 °F 87% 29.57 in 10.0 mi SSE 13.8 mph - N/A   Overcast
12:53 PM 42.8 °F 38.6 °F 39.2 °F 87% 29.56 in 6.0 mi South 6.9 mph 16.1 mph N/A Rain Rain
1:53 PM 44.6 °F 40.2 °F 39.2 °F 81% 29.54 in 10.0 mi South 8.1 mph - N/A Rain Light Rain
2:53 PM 44.6 °F 43.1 °F 39.2 °F 81% 29.54 in 10.0 mi SSW 3.5 mph - N/A Rain Light Rain
3:53 PM 42.8 °F 36.6 °F 39.2 °F 87% 29.51 in 10.0 mi NW 11.5 mph - N/A Rain Light Rain
4:53 PM 42.8 °F 38.0 °F 39.2 °F 87% 29.49 in 10.0 mi WNW 8.1 mph 18.4 mph N/A Rain Light Rain
5:53 PM 42.8 °F 40.1 °F 39.2 °F 87% 29.50 in 8.0 mi WNW 4.6 mph - N/A Rain Rain
6:53 PM 39.2 °F 33.6 °F 37.4 °F 93% 29.51 in 8.0 mi WNW 8.1 mph - N/A Rain Light Rain
7:53 PM 39.2 °F 33.6 °F 37.4 °F 93% 29.54 in 10.0 mi WNW 8.1 mph - N/A Rain Light Rain
8:53 PM 39.0 °F 35.7 °F 37.0 °F 93% 29.58 in 6.0 mi NW 4.6 mph - 0.06 in Rain Light Rain
9:24 PM 39.0 °F 34.8 °F 37.0 °F 93% 29.60 in 10.0 mi WNW 5.8 mph - 0.02 in Rain Light Rain
9:38 PM 39.0 °F 34.0 °F 37.0 °F 93% 29.61 in 10.0 mi WNW 6.9 mph - 0.02 in Rain Light Rain
9:53 PM 39.0 °F 34.8 °F 37.0 °F 93% 29.62 in 10.0 mi NW 5.8 mph - 0.02 in Rain Light Rain
10:18 PM 39.0 °F 36.8 °F 37.0 °F 93% 29.64 in 9.0 mi West 3.5 mph - 0.01 in Rain Light Rain
10:33 PM 37.9 °F 35.5 °F 37.0 °F 97% 29.65 in 10.0 mi WSW 3.5 mph - 0.01 in   Overcast
10:53 PM 39.0 °F 36.8 °F 37.0 °F 93% 29.67 in 10.0 mi SW 3.5 mph - 0.01 in   Overcast
11:53 PM 37.9 °F 34.4 °F 37.0 °F 97% 29.71 in 10.0 mi South 4.6 mph - 0.01 in   Overcast